[[{"header":{"parameterUnit":"m.s-1","parameterCategory":1,"la1":30.2991,"la2":30.254,"lo1":-89.0895,"lo2":-89.0444,"dy":0.0017,"dx":0.0017,"nx":28,"ny":28,"refTime":"2025-05-21T09:00:00:Z","depth":0,"parameterNumber":2,"parameterNumberName":"U-component_of_WINDS"},"data":[0,0,0,0,0,0,0,0,0,0,0,0,0,0,0,0,0,0,0,0,0,0,0,0,0,0,0,0,0,0,0,0,0,0,0,0,0,0,0,0,0,0,0,0,0,0,0,0,0,0,0,0,0,0,0,0,0,0,3.9825,3.9826,0,3.9972,3.9974,3.9975,3.9932,3.9929,3.9926,3.9923,4.0075,4.0082,4.0089,0,0,0,0,0,0,0,0,0,0,0,0,0,3.9506,3.9512,3.9825,3.9826,3.9828,3.9972,3.9974,3.9976,3.9933,3.9929,3.9925,3.9922,4.0073,4.0081,4.009,0,0,0,0,0,0,0,0,0,0,0,0,0,3.9648,3.9514,3.9824,3.9824,3.9825,3.9971,3.9974,3.9976,3.9933,3.9929,3.9924,3.992,4.007,4.0081,4.0091,4.0246,0,0,4.0122,4.0127,0,0,0,0,0,0,0,0,3.964,3.966,3.9822,3.9824,3.9826,3.9929,3.9917,4.0067,3.9935,3.9893,3.9923,3.9918,4.0031,4.0044,4.0082,4.0254,4.026,4.0123,4.013,4.0134,4.0137,0,0,0,0,0,0,0,3.963,3.9653,3.9883,3.9825,3.9827,3.9817,3.9832,3.9945,3.9986,3.9896,3.9893,3.9911,4.0031,4.0072,4.0085,4.0262,4.0123,4.0132,4.0139,4.0143,4.0568,4.0572,0,0,0,0,0,0,3.9619,3.9645,3.9878,3.9887,3.972,3.9826,3.9843,3.9901,3.9984,3.9992,3.9915,3.9908,4.0056,4.0073,4.009,4.0276,4.0134,4.0144,4.015,4.0563,4.0569,4.0574,0,0,0,0,0,0,3.9612,3.964,3.9872,3.9766,3.9794,3.9836,3.9902,3.9906,3.9947,3.9998,4.0005,3.9949,4.0053,4.0076,4.0207,4.0281,4.0148,4.0158,4.0557,4.0564,4.0571,4.0651,0,0,0,0,0,0,3.9603,3.9638,3.9697,3.9767,3.98,3.9987,3.9906,3.9912,3.9965,3.9958,4.0033,4.0041,4.0051,4.0192,4.0218,4.0293,4.0166,4.055,4.056,4.0569,4.0642,4.0661,4.0677,0,0,0,0,0,3.9592,3.9715,3.9701,3.9729,3.9876,3.9992,4.0011,4.002,3.9971,4.0031,4.0064,4.0038,4.0269,4.0206,4.0234,4.0314,4.0545,4.0557,4.0568,4.0635,4.0657,4.0676,0,0,0,0,0,0,3.9653,3.9724,3.9709,3.9858,3.9919,3.9984,4.006,4.0044,4.0121,4.0111,4.012,4.0137,4.0272,4.0306,4.0235,4.0468,4.04,4.0418,4.0441,4.0463,4.0479,4.0468,4.0174,0,0,0,0,0,3.9684,3.9772,3.9829,3.9955,3.9987,4.0018,4.0069,4.0071,4.0135,4.0161,4.0203,4.0266,4.0353,4.041,4.0492,4.0647,4.0662,4.0716,4.0733,4.0747,4.0762,4.0845,4.0869,4.0612,4.0612,4.0611,0,0,3.9749,3.9798,3.9854,3.9969,4.0016,4.0107,4.004,4.014,4.0207,4.0176,4.0302,4.0336,4.0407,4.055,4.0616,4.0583,4.0836,4.0761,4.0772,4.0779,4.0859,4.0883,4.0905,4.0619,4.0618,4.0617,0,0,3.9913,3.996,4.0069,4.0118,4.019,4.021,4.0236,4.0304,4.0325,4.0452,4.043,4.051,4.0659,4.071,4.0756,4.0938,4.0917,4.0965,4.1054,4.1135,4.1155,4.1173,4.1236,4.1259,4.0979,4.098,4.098,0,3.9984,4.012,4.0127,4.0228,4.0279,4.0254,4.0365,4.0412,4.0508,4.0544,4.0506,4.0691,4.0737,4.0892,4.0936,4.0974,4.1004,4.0956,4.1151,4.1169,4.1186,4.1247,4.1271,4.0985,4.0984,4.0984,4.0983,0,4.0203,4.0298,4.0378,4.047,4.053,4.0635,4.0658,4.0718,4.0715,4.0739,4.0868,4.0922,4.1015,4.1052,4.105,4.1206,4.1183,4.1148,4.108,4.1216,4.1273,4.1296,4.0992,4.0991,4.0989,4.0988,0,0,4.041,4.0504,4.0533,4.0574,4.0652,4.0725,4.0829,4.0919,4.0969,4.1037,4.1123,4.1249,4.1217,4.1269,4.1273,4.1344,4.1483,4.13,4.1302,4.1331,4.1656,4.1681,4.1708,4.1469,4.1474,4.1477,4.165,0,4.058,4.0762,4.0771,4.0937,4.1023,4.1001,4.1091,4.1148,4.1173,4.1251,4.1278,4.1367,4.1319,4.1349,4.1419,4.1451,4.1548,4.1439,4.1549,4.1553,4.1531,4.1738,4.1765,4.1925,4.1672,4.1676,4.1679,0,4.0802,4.0875,4.1049,4.1112,4.1149,4.123,4.1312,4.1387,4.1451,4.1464,4.1521,4.1514,4.162,4.1549,4.1694,4.162,4.1666,4.1688,4.1695,4.1705,4.1623,4.1752,4.1976,4.1999,4.1714,4.1712,4.1709,0,4.0934,4.1075,4.1197,4.1233,4.1311,4.1368,4.1404,4.1463,4.1516,4.1588,4.1622,4.1706,4.1752,4.1817,4.1832,4.1779,4.1978,4.1908,4.1991,4.199,4.2033,4.203,4.2266,4.2065,4.2064,4.2064,4.2063,0,4.1121,4.1228,4.1257,4.1332,4.1451,4.146,4.1578,4.1609,4.1662,4.1742,4.1728,4.1804,4.1821,4.19,4.1913,4.203,4.2052,4.2065,4.2067,4.2066,4.2064,4.2095,4.2084,4.207,4.2069,4.2068,4.2066,0,4.1288,4.1312,4.1443,4.1506,4.1524,4.1609,4.1662,4.1734,4.1757,4.1859,4.1883,4.192,4.2012,4.2034,4.2144,4.2153,4.2291,4.2283,4.2269,4.2269,4.235,4.2341,4.2614,4.2649,4.2426,4.2428,4.2429,0,4.1406,4.1488,4.1559,4.1611,4.1649,4.1734,4.1787,4.18,4.1856,4.1934,4.1996,4.2087,4.2159,4.2308,4.2344,4.2427,4.2421,4.251,4.2433,4.2429,4.242,4.2415,4.2422,4.2524,4.2527,4.2529,4.253,0,4.1612,4.1619,4.1697,4.1778,4.1842,4.1908,4.197,4.2013,4.2034,4.2098,4.2192,4.2248,4.236,4.2449,4.2533,4.2569,4.2553,4.2554,4.2578,4.2577,4.2565,4.2571,4.2308,4.2548,4.2546,4.2545,4.2544,4.2543,4.1757,4.1828,4.1888,4.1975,4.2023,4.2081,4.215,4.2182,4.226,4.2351,4.2354,4.2455,4.2516,4.2627,4.2668,4.2748,4.272,4.2755,4.2763,4.2771,4.2777,4.2553,4.2763,4.2763,4.2762,4.2762,4.2762,0,4.1961,4.1998,4.2078,4.2164,4.2232,4.2211,4.2278,4.2336,4.2426,4.2484,4.2555,4.2662,4.2749,4.2791,4.2877,4.2932,4.2927,4.2954,4.2949,4.2958,4.2798,4.2768,4.2957,4.2957,4.2956,4.2956,4.2956,4.2956,4.2074,4.2192,4.2207,4.2348,4.2385,4.2484,4.2524,4.2577,4.2623,4.2743,4.2814,4.2841,4.2893,4.2982,4.306,4.307,4.3102,4.3133,4.3139,4.2989,4.2969,4.295,4.2922,4.314,4.314,4.3292,4.3293,4.3294]},{"header":{"parameterUnit":"m.s-1","parameterCategory":1,"la1":30.2991,"la2":30.254,"lo1":-89.0895,"lo2":-89.0444,"dy":0.0017,"dx":0.0017,"nx":28,"ny":28,"refTime":"2025-05-21T09:00:00:Z","depth":0,"parameterNumber":3,"parameterNumberName":"V-component_of_WINDS"},"data":[0,0,0,0,0,0,0,0,0,0,0,0,0,0,0,0,0,0,0,0,0,0,0,0,0,0,0,0,0,0,0,0,0,0,0,0,0,0,0,0,0,0,0,0,0,0,0,0,0,0,0,0,0,0,0,0,0,0,1.6675,1.6677,0,1.6804,1.6806,1.6807,1.6819,1.6818,1.6816,1.6815,1.695,1.6955,1.696,0,0,0,0,0,0,0,0,0,0,0,0,0,1.6441,1.6445,1.6675,1.6677,1.6678,1.6804,1.6806,1.6808,1.6819,1.6818,1.6816,1.6814,1.6948,1.6954,1.696,0,0,0,0,0,0,0,0,0,0,0,0,0,1.6554,1.6447,1.6675,1.6699,1.6703,1.6804,1.6806,1.6808,1.682,1.6818,1.6816,1.6814,1.6947,1.6954,1.6961,1.7047,0,0,1.6983,1.6986,0,0,0,0,0,0,0,0,1.6547,1.6562,1.6694,1.6698,1.6702,1.6793,1.6773,1.6888,1.682,1.6775,1.6815,1.6813,1.69,1.6911,1.694,1.7054,1.7059,1.6984,1.6988,1.6991,1.6994,0,0,0,0,0,0,0,1.654,1.6557,1.6726,1.6696,1.6701,1.6705,1.6718,1.6795,1.6848,1.6779,1.678,1.6795,1.6902,1.6933,1.6943,1.7061,1.6984,1.699,1.6995,1.6998,1.7253,1.7255,0,0,0,0,0,0,1.6527,1.655,1.6722,1.673,1.6618,1.6711,1.6726,1.6766,1.6847,1.6857,1.6797,1.6795,1.6921,1.6934,1.6948,1.7054,1.6991,1.6998,1.7002,1.725,1.7253,1.7256,0,0,0,0,0,0,1.6522,1.6542,1.6717,1.6641,1.6663,1.6717,1.6762,1.677,1.6801,1.686,1.687,1.6819,1.692,1.6937,1.7022,1.7059,1.7002,1.7008,1.7247,1.7251,1.7254,1.7268,0,0,0,0,0,0,1.6515,1.654,1.6573,1.6641,1.6667,1.6789,1.6764,1.6774,1.6813,1.6812,1.6883,1.6893,1.692,1.7011,1.7029,1.7068,1.7014,1.7244,1.7249,1.7253,1.7265,1.7272,1.7278,0,0,0,0,0,1.6507,1.6572,1.6575,1.6595,1.6709,1.6791,1.6806,1.6834,1.6816,1.685,1.6888,1.6891,1.7052,1.702,1.704,1.7082,1.7242,1.7248,1.7253,1.7262,1.727,1.7278,0,0,0,0,0,0,1.6508,1.6582,1.6585,1.6675,1.6726,1.6793,1.6836,1.6843,1.6901,1.6898,1.6932,1.6948,1.7031,1.7065,1.7028,1.717,1.7145,1.7155,1.7145,1.7154,1.716,1.7151,1.702,0,0,0,0,0,1.6519,1.6578,1.664,1.6713,1.6738,1.6783,1.6819,1.6837,1.6892,1.6914,1.6958,1.7013,1.7075,1.7116,1.7177,1.7269,1.7285,1.7308,1.7314,1.732,1.7328,1.7379,1.739,1.7273,1.7273,1.7273,0,0,1.6542,1.6589,1.6625,1.6714,1.6756,1.6818,1.6801,1.6867,1.6913,1.6925,1.7007,1.7041,1.7104,1.7193,1.7234,1.7223,1.7364,1.7326,1.733,1.7336,1.7386,1.7397,1.7407,1.7277,1.7276,1.7276,0,0,1.6615,1.6657,1.6723,1.6765,1.6828,1.6857,1.6873,1.6938,1.6961,1.7044,1.7054,1.7109,1.7217,1.7261,1.7298,1.7387,1.7392,1.7406,1.7441,1.749,1.7499,1.7508,1.754,1.7551,1.7413,1.7414,1.7414,0,1.6636,1.6729,1.6756,1.6821,1.686,1.6872,1.6939,1.6979,1.7059,1.7087,1.7073,1.7208,1.7251,1.735,1.7372,1.7401,1.742,1.7398,1.7496,1.7504,1.7513,1.7544,1.7556,1.7415,1.7415,1.7415,1.7414,0,1.6751,1.6815,1.6861,1.6937,1.6981,1.7047,1.7085,1.7126,1.714,1.717,1.7255,1.7306,1.7378,1.7403,1.7417,1.7504,1.7496,1.7489,1.7465,1.7525,1.7555,1.7567,1.7417,1.7416,1.7416,1.7416,0,0,1.6831,1.692,1.6937,1.6971,1.7042,1.7092,1.7158,1.7227,1.7263,1.7318,1.7375,1.7465,1.7458,1.75,1.7519,1.7562,1.763,1.755,1.7552,1.7564,1.773,1.7736,1.7749,1.7633,1.7635,1.7637,1.7725,0,1.6913,1.7031,1.7057,1.7159,1.7218,1.7229,1.7288,1.7337,1.7367,1.7423,1.7456,1.752,1.7506,1.7531,1.7575,1.7612,1.7664,1.7606,1.7688,1.769,1.7673,1.7765,1.7771,1.7852,1.7737,1.7739,1.7741,0,1.7024,1.7081,1.7188,1.725,1.7276,1.7328,1.7393,1.7446,1.7502,1.7521,1.7567,1.7581,1.7651,1.7623,1.772,1.7681,1.7715,1.7739,1.7743,1.7752,1.772,1.7778,1.7878,1.789,1.7759,1.7758,1.7756,0,1.7072,1.7175,1.7253,1.7282,1.7356,1.7392,1.7425,1.7479,1.7519,1.7576,1.7603,1.7668,1.7703,1.7754,1.7785,1.7761,1.7881,1.7855,1.7899,1.7898,1.7925,1.7923,1.8033,1.7945,1.7945,1.7945,1.7945,0,1.7162,1.7227,1.7275,1.7323,1.7397,1.7426,1.7499,1.7531,1.758,1.7635,1.7648,1.77,1.7738,1.7795,1.782,1.7897,1.7913,1.7931,1.7937,1.793,1.7928,1.7955,1.795,1.7948,1.7947,1.7947,1.7946,0,1.7228,1.7263,1.7348,1.7411,1.7428,1.748,1.7534,1.7581,1.7611,1.768,1.7698,1.7746,1.7813,1.7849,1.7934,1.7951,1.8038,1.8041,1.8019,1.8021,1.8064,1.806,1.8195,1.8215,1.8114,1.8114,1.8115,0,1.7283,1.7334,1.7402,1.7439,1.7472,1.7532,1.7572,1.7603,1.7645,1.7713,1.7752,1.782,1.7876,1.7984,1.8026,1.8091,1.8096,1.8139,1.8106,1.8098,1.8098,1.8095,1.81,1.8145,1.8146,1.8147,1.8148,0,1.7378,1.7392,1.7449,1.7513,1.756,1.7612,1.7662,1.7692,1.7732,1.7778,1.7846,1.789,1.7976,1.8044,1.8112,1.8146,1.8154,1.8157,1.8171,1.8166,1.8151,1.816,1.8035,1.8155,1.8154,1.8153,1.8153,1.8153,1.7441,1.7487,1.7541,1.7604,1.7646,1.7693,1.774,1.7775,1.7833,1.7905,1.7919,1.7992,1.8048,1.814,1.8176,1.8234,1.8226,1.8245,1.8251,1.8255,1.8258,1.8141,1.8247,1.8246,1.8246,1.8246,1.8246,0,1.7537,1.7572,1.763,1.77,1.775,1.7751,1.7808,1.785,1.7913,1.7964,1.8018,1.8097,1.8163,1.821,1.8277,1.8314,1.832,1.8331,1.8329,1.8337,1.8261,1.8243,1.8326,1.8326,1.8326,1.8326,1.8326,1.8326,1.7593,1.767,1.769,1.7788,1.7823,1.7894,1.7926,1.797,1.801,1.8098,1.8152,1.8182,1.8231,1.8302,1.8362,1.8374,1.8399,1.841,1.8423,1.8351,1.8343,1.8334,1.8317,1.8415,1.8415,1.8494,1.8495,1.8495]}]]